Location: Desert Center
(33.7130°N, 115.4010°W)
Time: 07:34:45
(UTC-08:00)

Envisat - Visible Passes

Search period start: 03 December 2021 00:00
Search period end: 13 December 2021 00:00
Orbit: 764 x 766 km, 98.2° (Epoch: 02 December)

Date Brightness Start Highest point End Pass type
(mag) Time Alt. Az. Time Alt. Az. Time Alt. Az.
03 Dec 6.1 03:19:04 10° ENE 03:20:39 11° E 03:22:14 10° ESE visible
03 Dec 2.9 04:55:00 10° N 05:00:01 64° WNW 05:05:01 10° SSW visible
04 Dec 3.7 04:18:13 10° NNE 04:23:11 53° E 04:28:07 10° S visible
04 Dec 4.5 05:58:51 10° NNW 06:01:42 15° WNW 06:04:33 10° W visible
04 Dec 6.0 17:09:38 10° SW 17:12:45 16° W 17:15:52 10° NW visible
05 Dec 5.3 03:42:17 10° NE 03:46:10 22° E 03:50:02 10° SE visible
05 Dec 3.5 05:20:38 10° N 05:25:12 35° WNW 05:29:45 10° SW visible
06 Dec 2.9 04:43:23 10° N 04:48:29 83° WNW 04:53:33 10° SSW visible
07 Dec 4.2 04:06:50 10° NNE 04:11:36 40° E 04:16:20 10° SSE visible
07 Dec 4.2 05:46:42 10° NNW 05:50:16 20° WNW 05:53:50 10° WSW visible
07 Dec 5.8 16:57:18 10° SW 17:01:06 21° W 17:04:57 10° NW visible
08 Dec 5.6 03:31:20 10° NE 03:34:32 17° E 03:37:43 10° SE visible
08 Dec 3.2 05:08:53 10° N 05:13:42 45° WNW 05:18:30 10° SW visible
09 Dec 3.1 04:31:51 10° NNE 04:36:57 76° ESE 04:42:00 10° S visible
09 Dec 6.4 17:25:13 10° WSW 17:26:37 11° W 17:28:01 10° WNW visible
10 Dec 4.7 03:55:32 10° NE 04:00:00 31° E 04:04:27 10° SSE visible
10 Dec 3.9 05:34:44 10° NNW 05:38:49 25° WNW 05:42:55 10° WSW visible
11 Dec 5.9 03:20:46 10° ENE 03:22:52 12° E 03:24:59 10° ESE visible
11 Dec 2.9 04:57:12 10° N 05:02:12 59° WNW 05:07:10 10° SSW visible
12 Dec 3.5 04:20:22 10° NNE 04:25:23 57° E 04:30:21 10° S visible
12 Dec 4.5 06:01:16 10° NW 06:03:51 14° WNW 06:06:25 10° W visible
12 Dec 6.0 17:12:07 10° SW 17:14:58 15° W 17:17:49 10° WNW visible
